Time,TemperatureF,DewpointF,PressureIn,WindDirection,WindDirectionDegrees,WindSpeedMPH,WindSpeedGustMPH,Humidity,HourlyPrecipIn,Conditions,Clouds,dailyrainin,SoftwareType,DateUTC
2013-10-02 00:11:00,52.7,42.0,25.20,ESE,112,1.0,8.0,68,0.00,,,0.00,weatherlink.com 1.10,2013-10-02 06:11:00,
2013-10-02 00:26:00,52.4,42.0,25.20,SE,145,2.0,6.0,69,0.00,,,0.00,weatherlink.com 1.10,2013-10-02 06:26:00,
2013-10-02 00:41:00,52.1,43.0,25.19,South,190,3.0,7.0,70,0.00,,,0.00,weatherlink.com 1.10,2013-10-02 06:41:00,
2013-10-02 00:56:00,52.0,43.0,25.19,South,189,3.0,7.0,71,0.00,,,0.00,weatherlink.com 1.10,2013-10-02 06:56:00,
2013-10-02 01:12:00,51.6,43.0,25.18,WSW,255,1.0,4.0,72,0.00,,,0.00,weatherlink.com 1.10,2013-10-02 07:12:00,
2013-10-02 01:27:00,49.5,43.0,25.18,NNE,31,1.0,3.0,77,0.00,,,0.00,weatherlink.com 1.10,2013-10-02 07:27:00,
2013-10-02 01:42:00,49.7,43.0,25.18,NE,37,0.0,2.0,78,0.00,,,0.00,weatherlink.com 1.10,2013-10-02 07:42:00,
2013-10-02 01:57:00,49.0,43.0,25.18,North,3,1.0,2.0,79,0.00,,,0.00,weatherlink.com 1.10,2013-10-02 07:57:00,
2013-10-02 02:12:00,48.8,43.0,25.19,WNW,282,1.0,5.0,81,0.00,,,0.00,weatherlink.com 1.10,2013-10-02 08:12:00,
2013-10-02 02:27:00,49.5,44.0,25.19,WSW,257,0.0,3.0,80,0.00,,,0.00,weatherlink.com 1.10,2013-10-02 08:27:00,
2013-10-02 02:42:00,48.7,43.0,25.18,SSW,211,0.0,1.0,82,0.00,,,0.00,weatherlink.com 1.10,2013-10-02 08:42:00,
2013-10-02 02:57:00,48.1,43.0,25.18,West,276,1.0,2.0,83,0.00,,,0.00,weatherlink.com 1.10,2013-10-02 08:57:00,
2013-10-02 03:12:00,47.9,43.0,25.18,WSW,248,3.0,7.0,84,0.00,,,0.00,weatherlink.com 1.10,2013-10-02 09:12:00,
2013-10-02 03:27:00,48.6,44.0,25.18,SW,214,2.0,3.0,83,0.00,,,0.00,weatherlink.com 1.10,2013-10-02 09:27:00,
2013-10-02 03:42:00,48.2,44.0,25.17,SSE,155,1.0,2.0,85,0.00,,,0.00,weatherlink.com 1.10,2013-10-02 09:42:00,
2013-10-02 03:57:00,48.0,43.0,25.17,SE,136,0.0,2.0,84,0.00,,,0.00,weatherlink.com 1.10,2013-10-02 09:57:00,
2013-10-02 04:12:00,47.5,45.0,25.17,WSW,249,2.0,3.0,89,0.00,,,0.00,weatherlink.com 1.10,2013-10-02 10:12:00,
2013-10-02 04:27:00,48.4,44.0,25.18,North,353,1.0,4.0,86,0.00,,,0.00,weatherlink.com 1.10,2013-10-02 10:27:00,
2013-10-02 04:42:00,47.4,44.0,25.18,West,273,3.0,4.0,87,0.00,,,0.00,weatherlink.com 1.10,2013-10-02 10:42:00,
2013-10-02 04:57:00,46.7,43.0,25.18,NW,314,3.0,-999.0,86,-99.99,,,0.00,weatherlink.com 1.10,2013-10-02 10:57:00,
2013-10-02 05:12:00,46.3,43.0,25.18,West,260,1.0,3.0,87,0.00,,,0.00,weatherlink.com 1.10,2013-10-02 11:12:00,
2013-10-02 05:27:00,45.5,42.0,25.18,WSW,248,0.0,1.0,88,0.00,,,0.00,weatherlink.com 1.10,2013-10-02 11:27:00,
2013-10-02 05:42:00,43.9,41.0,25.18,West,276,0.0,1.0,89,0.00,,,0.00,weatherlink.com 1.10,2013-10-02 11:42:00,
2013-10-02 05:57:00,43.4,41.0,25.18,West,278,2.0,2.0,91,0.00,,,0.00,weatherlink.com 1.10,2013-10-02 11:57:00,
2013-10-02 06:12:00,43.4,41.0,25.18,West,276,2.0,4.0,91,0.00,,,0.00,weatherlink.com 1.10,2013-10-02 12:12:00,
2013-10-02 06:27:00,43.7,41.0,25.18,SW,233,2.0,5.0,90,0.00,,,0.00,weatherlink.com 1.10,2013-10-02 12:27:00,
2013-10-02 06:42:00,43.2,41.0,25.18,SSW,203,0.0,1.0,90,0.00,,,0.00,weatherlink.com 1.10,2013-10-02 12:42:00,
2013-10-02 06:57:00,42.7,40.0,25.18,SSW,204,0.0,0.0,91,0.00,,,0.00,weatherlink.com 1.10,2013-10-02 12:57:00,
2013-10-02 07:12:00,41.6,40.0,25.18,SSW,204,0.0,0.0,92,0.00,,,0.00,weatherlink.com 1.10,2013-10-02 13:12:00,
2013-10-02 07:27:00,42.1,41.0,25.18,SSW,203,0.0,0.0,94,0.00,,,0.00,weatherlink.com 1.10,2013-10-02 13:27:00,
2013-10-02 07:42:00,44.3,41.0,25.18,WSW,249,2.0,2.0,88,0.00,,,0.00,weatherlink.com 1.10,2013-10-02 13:42:00,
2013-10-02 07:57:00,48.7,41.0,25.18,WSW,245,3.0,5.0,75,0.00,,,0.00,weatherlink.com 1.10,2013-10-02 13:57:00,
2013-10-02 08:12:00,51.0,41.0,25.19,SW,236,3.0,5.0,69,0.00,,,0.00,weatherlink.com 1.10,2013-10-02 14:12:00,
2013-10-02 08:27:00,53.2,41.0,25.19,WSW,252,6.0,8.0,64,0.00,,,0.00,weatherlink.com 1.10,2013-10-02 14:27:00,
2013-10-02 08:43:00,55.5,41.0,25.19,WSW,257,6.0,9.0,59,0.00,,,0.00,weatherlink.com 1.10,2013-10-02 14:43:00,
2013-10-02 08:57:00,55.7,41.0,25.20,West,272,4.0,7.0,59,0.00,,,0.00,weatherlink.com 1.10,2013-10-02 14:57:00,
2013-10-02 09:12:00,60.0,43.0,25.20,WSW,253,3.0,6.0,54,0.00,,,0.00,weatherlink.com 1.10,2013-10-02 15:12:00,
2013-10-02 09:27:00,62.2,44.0,25.20,WNW,294,2.0,4.0,52,0.00,,,0.00,weatherlink.com 1.10,2013-10-02 15:27:00,
2013-10-02 09:42:00,65.4,46.0,25.20,NNW,329,3.0,5.0,49,0.00,,,0.00,weatherlink.com 1.10,2013-10-02 15:42:00,
2013-10-02 09:58:00,68.1,45.0,25.21,NNW,332,10.0,13.0,43,0.00,,,0.00,weatherlink.com 1.10,2013-10-02 15:58:00,
2013-10-02 10:13:00,69.6,38.0,25.21,North,360,13.0,15.0,32,0.00,,,0.00,weatherlink.com 1.10,2013-10-02 16:13:00,
2013-10-02 10:28:00,68.1,38.0,25.22,NNW,328,10.0,15.0,33,0.00,,,0.00,weatherlink.com 1.10,2013-10-02 16:28:00,
2013-10-02 10:43:00,67.6,40.0,25.22,NNW,331,9.0,16.0,37,0.00,,,0.00,weatherlink.com 1.10,2013-10-02 16:43:00,
2013-10-02 10:58:00,67.3,41.0,25.22,NNE,20,9.0,14.0,39,0.00,,,0.00,weatherlink.com 1.10,2013-10-02 16:58:00,
2013-10-02 11:13:00,67.0,41.0,25.23,NNW,341,12.0,15.0,39,0.00,,,0.00,weatherlink.com 1.10,2013-10-02 17:13:00,
2013-10-02 11:28:00,66.8,42.0,25.23,NNE,20,11.0,17.0,40,0.00,,,0.00,weatherlink.com 1.10,2013-10-02 17:28:00,
2013-10-02 11:43:00,65.0,39.0,25.24,NNE,32,16.0,18.0,39,0.00,,,0.00,weatherlink.com 1.10,2013-10-02 17:43:00,
2013-10-02 11:58:00,64.1,42.0,25.24,NNE,26,8.0,15.0,44,0.00,,,0.00,weatherlink.com 1.10,2013-10-02 17:58:00,
2013-10-02 12:13:00,65.7,41.0,25.23,NE,41,10.0,17.0,41,0.00,,,0.00,weatherlink.com 1.10,2013-10-02 18:13:00,
2013-10-02 12:28:00,66.2,42.0,25.23,NNW,339,15.0,15.0,41,0.00,,,0.00,weatherlink.com 1.10,2013-10-02 18:28:00,
2013-10-02 12:43:00,66.3,40.0,25.23,NE,36,17.0,20.0,39,0.00,,,0.00,weatherlink.com 1.10,2013-10-02 18:43:00,
2013-10-02 12:58:00,65.2,38.0,25.23,NNW,335,8.0,16.0,37,0.00,,,0.00,weatherlink.com 1.10,2013-10-02 18:58:00,
2013-10-02 13:13:00,66.3,39.0,25.22,NE,45,16.0,20.0,37,0.00,,,0.00,weatherlink.com 1.10,2013-10-02 19:13:00,
2013-10-02 13:28:00,66.2,38.0,25.22,NE,36,11.0,17.0,36,0.00,,,0.00,weatherlink.com 1.10,2013-10-02 19:28:00,
2013-10-02 13:43:00,66.6,39.0,25.21,NNE,27,11.0,19.0,36,0.00,,,0.00,weatherlink.com 1.10,2013-10-02 19:43:00,
2013-10-02 13:58:00,66.4,39.0,25.21,NE,41,11.0,20.0,36,0.00,,,0.00,weatherlink.com 1.10,2013-10-02 19:58:00,
2013-10-02 14:13:00,67.2,39.0,25.20,NE,40,13.0,16.0,35,0.00,,,0.00,weatherlink.com 1.10,2013-10-02 20:13:00,
2013-10-02 14:28:00,67.1,39.0,25.20,NNE,33,8.0,18.0,36,0.00,,,0.00,weatherlink.com 1.10,2013-10-02 20:28:00,
2013-10-02 14:43:00,66.3,38.0,25.20,NE,44,16.0,19.0,35,0.00,,,0.00,weatherlink.com 1.10,2013-10-02 20:43:00,
2013-10-02 14:58:00,67.4,41.0,25.20,NNE,27,9.0,15.0,38,0.00,,,0.00,weatherlink.com 1.10,2013-10-02 20:58:00,
2013-10-02 15:13:00,67.4,41.0,25.19,NNE,33,8.0,15.0,38,0.00,,,0.00,weatherlink.com 1.10,2013-10-02 21:13:00,
2013-10-02 15:28:00,67.9,42.0,25.19,NE,49,9.0,12.0,39,0.00,,,0.00,weatherlink.com 1.10,2013-10-02 21:28:00,
2013-10-02 15:43:00,66.1,41.0,25.19,NNE,24,7.0,15.0,40,0.00,,,0.00,weatherlink.com 1.10,2013-10-02 21:43:00,
2013-10-02 15:58:00,65.6,41.0,25.19,NNE,28,10.0,17.0,40,0.00,,,0.00,weatherlink.com 1.10,2013-10-02 21:58:00,
2013-10-02 16:13:00,66.1,40.0,25.18,NE,34,10.0,14.0,39,0.00,,,0.00,weatherlink.com 1.10,2013-10-02 22:13:00,
2013-10-02 16:28:00,65.6,41.0,25.18,NE,45,9.0,15.0,41,0.00,,,0.00,weatherlink.com 1.10,2013-10-02 22:28:00,
2013-10-02 16:43:00,65.4,42.0,25.18,NE,41,10.0,14.0,42,0.00,,,0.00,weatherlink.com 1.10,2013-10-02 22:43:00,
2013-10-02 16:58:00,64.8,40.0,25.18,NE,37,12.0,15.0,40,0.00,,,0.00,weatherlink.com 1.10,2013-10-02 22:58:00,
2013-10-02 17:13:00,64.8,39.0,25.18,NE,44,7.0,10.0,39,0.00,,,0.00,weatherlink.com 1.10,2013-10-02 23:13:00,
2013-10-02 17:28:00,63.8,38.0,25.18,NE,44,8.0,11.0,39,0.00,,,0.00,weatherlink.com 1.10,2013-10-02 23:28:00,
2013-10-02 17:43:00,63.1,38.0,25.18,ENE,58,8.0,12.0,39,0.00,,,0.00,weatherlink.com 1.10,2013-10-02 23:43:00,
2013-10-02 17:58:00,61.7,38.0,25.18,NE,39,4.0,11.0,42,0.00,,,0.00,weatherlink.com 1.10,2013-10-02 23:58:00,
2013-10-02 18:13:00,59.7,37.0,25.18,NE,49,9.0,11.0,43,0.00,,,0.00,weatherlink.com 1.10,2013-10-03 00:13:00,
2013-10-02 18:28:00,57.7,37.0,25.18,NE,45,7.0,9.0,46,0.00,,,0.00,weatherlink.com 1.10,2013-10-03 00:28:00,
2013-10-02 18:43:00,55.9,37.0,25.18,NNE,32,5.0,7.0,50,0.00,,,0.00,weatherlink.com 1.10,2013-10-03 00:43:00,
2013-10-02 18:59:00,54.6,37.0,25.19,NE,46,3.0,5.0,52,0.00,,,0.00,weatherlink.com 1.10,2013-10-03 00:59:00,
2013-10-02 19:14:00,53.4,37.0,25.19,NE,50,2.0,3.0,55,0.00,,,0.00,weatherlink.com 1.10,2013-10-03 01:14:00,
2013-10-02 19:29:00,52.5,37.0,25.19,NE,44,2.0,3.0,57,0.00,,,0.00,weatherlink.com 1.10,2013-10-03 01:29:00,
2013-10-02 19:44:00,51.8,37.0,25.19,ENE,58,1.0,3.0,58,0.00,,,0.00,weatherlink.com 1.10,2013-10-03 01:44:00,
2013-10-02 19:59:00,50.9,37.0,25.19,NE,53,1.0,1.0,60,0.00,,,0.00,weatherlink.com 1.10,2013-10-03 01:59:00,
2013-10-02 20:14:00,50.3,38.0,25.19,NE,39,2.0,2.0,62,0.00,,,0.00,weatherlink.com 1.10,2013-10-03 02:14:00,
2013-10-02 20:29:00,49.7,37.0,25.20,NE,41,1.0,2.0,63,0.00,,,0.00,weatherlink.com 1.10,2013-10-03 02:29:00,
2013-10-02 20:44:00,49.5,37.0,25.20,NE,41,1.0,3.0,63,0.00,,,0.00,weatherlink.com 1.10,2013-10-03 02:44:00,
2013-10-02 20:59:00,49.6,37.0,25.20,NE,40,2.0,3.0,62,0.00,,,0.00,weatherlink.com 1.10,2013-10-03 02:59:00,
2013-10-02 21:14:00,49.2,37.0,25.20,NE,41,1.0,2.0,63,0.00,,,0.00,weatherlink.com 1.10,2013-10-03 03:14:00,
2013-10-02 21:29:00,48.7,37.0,25.20,NE,56,2.0,2.0,65,0.00,,,0.00,weatherlink.com 1.10,2013-10-03 03:29:00,
2013-10-02 21:44:00,48.3,37.0,25.20,NE,46,1.0,2.0,65,0.00,,,0.00,weatherlink.com 1.10,2013-10-03 03:44:00,
2013-10-02 21:59:00,47.9,37.0,25.19,NE,48,1.0,2.0,66,0.00,,,0.00,weatherlink.com 1.10,2013-10-03 03:59:00,
2013-10-02 22:14:00,47.4,37.0,25.19,ENE,65,1.0,2.0,67,0.00,,,0.00,weatherlink.com 1.10,2013-10-03 04:14:00,
2013-10-02 22:29:00,47.1,37.0,25.18,ENE,76,1.0,2.0,67,0.00,,,0.00,weatherlink.com 1.10,2013-10-03 04:29:00,
2013-10-02 22:44:00,46.8,37.0,25.18,NNE,33,0.0,3.0,68,0.00,,,0.00,weatherlink.com 1.10,2013-10-03 04:44:00,
2013-10-02 22:59:00,46.4,37.0,25.18,NNE,30,0.0,2.0,69,0.00,,,0.00,weatherlink.com 1.10,2013-10-03 04:59:00,
2013-10-02 23:14:00,45.7,37.0,25.18,NE,40,0.0,1.0,71,0.00,,,0.00,weatherlink.com 1.10,2013-10-03 05:14:00,
2013-10-02 23:29:00,45.6,36.0,25.18,North,349,1.0,2.0,70,0.00,,,0.00,weatherlink.com 1.10,2013-10-03 05:29:00,
2013-10-02 23:44:00,45.7,36.0,25.17,NW,307,1.0,3.0,70,0.00,,,0.00,weatherlink.com 1.10,2013-10-03 05:44:00,
2013-10-02 23:59:00,45.9,37.0,25.17,NNW,333,2.0,3.0,71,0.00,,,0.00,weatherlink.com 1.10,2013-10-03 05:59:00,